カタログに戻る

STARLINK-34226

運用中通信VLEO
NORAD 64494·PAYLOAD·🇺🇸 United States

打ち上げ Jun 23, 2025 から Cape Canaveral Space Force Station

Loading…

次のパス (今後24時間)

TLE

最新Source: CelesTrak SupGP

元期: Sep 14, 2026, 23:02 UTC

1 64494C 25133Y   26257.96020833  .00033690  00000+0  10834-2 0  2579
2 64494  53.1596 316.4184 0001205  85.8429 286.5864 15.31683128    17

AllMySatでSTARLINK-34226をリアルタイム追跡

Download on the App Store